| time (UTC) | temp F | wind direction | speed MPH | gust MPH | rain 1hr in | rain 24hr in | rain mn in | humidity % | barometer mb |
| 20260506005559 | 74 | 145 | 1.0 | 5.0 | 0.00 | 0.00 | 0.00 | 48 | 1012.6 |
| 20260506005058 | 74 | 160 | 1.0 | 6.0 | 0.00 | 0.00 | 0.00 | 48 | 1012.5 |
| 20260506004603 | 74 | 147 | 0.0 | 4.0 | 0.00 | 0.00 | 0.00 | 48 | 1012.5 |
| 20260506004058 | 74 | 157 | 0.0 | 5.0 | 0.00 | 0.00 | 0.00 | 47 | 1012.5 |
| 20260506003601 | 75 | 177 | 2.0 | 5.0 | 0.00 | 0.00 | 0.00 | 47 | 1012.4 |
| 20260506003116 | 75 | 169 | 1.0 | 5.0 | 0.00 | 0.00 | 0.00 | 47 | 1012.3 |
| 20260506002601 | 75 | 127 | 0.0 | 5.0 | 0.00 | 0.00 | 0.00 | 47 | 1012.4 |
| 20260506002058 | 75 | 155 | 1.0 | 6.0 | 0.00 | 0.00 | 0.00 | 46 | 1012.5 |
| 20260506001618 | 75 | 180 | 1.0 | 6.0 | 0.00 | 0.00 | 0.00 | 46 | 1012.3 |
| 20260506001058 | 76 | 171 | 0.0 | 3.0 | 0.00 | 0.00 | 0.00 | 46 | 1012.3 |
| 20260506000558 | 76 | 192 | 1.0 | 5.0 | 0.00 | 0.00 | 0.00 | 45 | 1012.3 |
| 20260506000105 | 76 | 128 | 1.0 | 5.0 | 0.00 | 0.00 | 0.00 | 45 | 1012.2 |
| 20260505235557 | 76 | 217 | 2.0 | 7.0 | 0.00 | 0.00 | 0.00 | 45 | 1012.2 |
| 20260505235056 | 76 | 169 | 1.0 | 7.0 | 0.00 | 0.00 | 0.00 | 45 | 1012.3 |
| 20260505234612 | 76 | 217 | 1.0 | 6.0 | 0.00 | 0.00 | 0.00 | 44 | 1012.3 |
| 20260505234057 | 77 | 188 | 0.0 | 4.0 | 0.00 | 0.00 | 0.00 | 44 | 1012.1 |
| 20260505233557 | 77 | 160 | 1.0 | 8.0 | 0.00 | 0.00 | 0.00 | 44 | 1012.1 |
| 20260505233057 | 77 | 137 | 1.0 | 9.0 | 0.00 | 0.00 | 0.00 | 43 | 1012.1 |
| 20260505232556 | 77 | 107 | 1.0 | 4.0 | 0.00 | 0.00 | 0.00 | 43 | 1012.1 |
| 20260505232058 | 77 | 150 | 1.0 | 9.0 | 0.00 | 0.00 | 0.00 | 43 | 1012.1 |
| 20260505231556 | 77 | 170 | 2.0 | 9.0 | 0.00 | 0.00 | 0.00 | 42 | 1012.2 |
| 20260505231055 | 77 | 183 | 2.0 | 6.0 | 0.00 | 0.00 | 0.00 | 41 | 1012.1 |
| 20260505230555 | 78 | 45 | 2.0 | 6.0 | 0.00 | 0.00 | 0.00 | 42 | 1012.1 |
| 20260505230055 | 78 | 133 | 1.0 | 5.0 | 0.00 | 0.00 | 0.00 | 41 | 1012.1 |
| 20260505225558 | 78 | 157 | 1.0 | 7.0 | 0.00 | 0.00 | 0.00 | 41 | 1012.0 |
| 20260505225055 | 78 | 219 | 3.0 | 7.0 | 0.00 | 0.00 | 0.00 | 40 | 1012.1 |
| 20260505224555 | 78 | 146 | 1.0 | 6.0 | 0.00 | 0.00 | 0.00 | 40 | 1012.1 |
| 20260505224055 | 79 | 182 | 3.0 | 7.0 | 0.00 | 0.00 | 0.00 | 39 | 1012.1 |
| 20260505223554 | 79 | 153 | 2.0 | 12.0 | 0.00 | 0.00 | 0.00 | 39 | 1012.1 |
| 20260505223105 | 79 | 37 | 1.0 | 12.0 | 0.00 | 0.00 | 0.00 | 39 | 1012.1 |
| 20260505222551 | 79 | 152 | 1.0 | 9.0 | 0.00 | 0.00 | 0.00 | 39 | 1012.1 |
| 20260505222049 | 79 | 203 | 4.0 | 9.0 | 0.00 | 0.00 | 0.00 | 38 | 1012.0 |
| 20260505221548 | 80 | 165 | 1.0 | 10.0 | 0.00 | 0.00 | 0.00 | 37 | 1012.0 |
| 20260505221047 | 80 | 147 | 4.0 | 10.0 | 0.00 | 0.00 | 0.00 | 37 | 1012.0 |
| 20260505220544 | 80 | 229 | 2.0 | 12.0 | 0.00 | 0.00 | 0.00 | 38 | 1011.9 |
| 20260505220047 | 80 | 186 | 2.0 | 12.0 | 0.00 | 0.00 | 0.00 | 37 | 1011.9 |
| 20260505215542 | 80 | 174 | 3.0 | 9.0 | 0.00 | 0.00 | 0.00 | 36 | 1011.9 |
| 20260505215040 | 80 | 153 | 3.0 | 11.0 | 0.00 | 0.00 | 0.00 | 35 | 1011.9 |
| 20260505214552 | 80 | 215 | 1.0 | 15.0 | 0.00 | 0.00 | 0.00 | 34 | 1011.8 |
| 20260505214041 | 80 | 174 | 5.0 | 15.0 | 0.00 | 0.00 | 0.00 | 33 | 1011.8 |
| 20260505213536 | 80 | 230 | 2.0 | 10.0 | 0.00 | 0.00 | 0.00 | 33 | 1011.9 |
| 20260505213034 | 81 | 260 | 4.0 | 10.0 | 0.00 | 0.00 | 0.00 | 32 | 1012.0 |
| 20260505212533 | 81 | 198 | 2.0 | 7.0 | 0.00 | 0.00 | 0.00 | 32 | 1011.9 |
| 20260505212034 | 81 | 230 | 2.0 | 5.0 | 0.00 | 0.00 | 0.00 | 32 | 1011.9 |
| 20260505211540 | 82 | 195 | 2.0 | 4.0 | 0.00 | 0.00 | 0.00 | 32 | 1011.9 |
| 20260505211028 | 82 | 182 | 1.0 | 9.0 | 0.00 | 0.00 | 0.00 | 32 | 1012.0 |
| 20260505210530 | 82 | 167 | 2.0 | 9.0 | 0.00 | 0.00 | 0.00 | 30 | 1011.9 |
| 20260505210025 | 82 | 201 | 2.0 | 18.0 | 0.00 | 0.00 | 0.00 | 30 | 1011.9 |
| 20260505205524 | 82 | 90 | 2.0 | 18.0 | 0.00 | 0.00 | 0.00 | 30 | 1012.0 |
| 20260505205021 | 83 | 150 | 3.0 | 14.0 | 0.00 | 0.00 | 0.00 | 30 | 1011.9 |
| 20260505204522 | 83 | 171 | 3.0 | 10.0 | 0.00 | 0.00 | 0.00 | 30 | 1011.9 |
| 20260505204019 | 83 | 216 | 2.0 | 5.0 | 0.00 | 0.00 | 0.00 | 30 | 1011.8 |
| 20260505203517 | 83 | 206 | 2.0 | 5.0 | 0.00 | 0.00 | 0.00 | 30 | 1011.7 |
| 20260505203016 | 84 | 188 | 2.0 | 5.0 | 0.00 | 0.00 | 0.00 | 28 | 1011.8 |
| 20260505202515 | 84 | 245 | 2.0 | 6.0 | 0.00 | 0.00 | 0.00 | 28 | 1011.7 |
| 20260505202014 | 85 | 247 | 1.0 | 6.0 | 0.00 | 0.00 | 0.00 | 27 | 1011.8 |
| 20260505201512 | 85 | 146 | 3.0 | 7.0 | 0.00 | 0.00 | 0.00 | 27 | 1012.0 |
| 20260505201013 | 85 | 186 | 2.0 | 8.0 | 0.00 | 0.00 | 0.00 | 27 | 1011.9 |
| 20260505200509 | 85 | 251 | 2.0 | 9.0 | 0.00 | 0.00 | 0.00 | 26 | 1012.0 |
| 20260505200008 | 86 | 161 | 3.0 | 9.0 | 0.00 | 0.00 | 0.00 | 25 | 1012.0 |
| 20260505195506 | 86 | 192 | 2.0 | 8.0 | 0.00 | 0.00 | 0.00 | 26 | 1012.2 |
| 20260505195004 | 86 | 221 | 4.0 | 11.0 | 0.00 | 0.00 | 0.00 | 27 | 1012.2 |
| 20260505194504 | 86 | 61 | 3.0 | 18.0 | 0.00 | 0.00 | 0.00 | 27 | 1012.3 |
| 20260505194001 | 86 | 211 | 4.0 | 18.0 | 0.00 | 0.00 | 0.00 | 26 | 1012.3 |
| 20260505193600 | 86 | 234 | 3.0 | 15.0 | 0.00 | 0.00 | 0.00 | 26 | 1012.2 |
| 20260505193059 | 87 | 172 | 5.0 | 15.0 | 0.00 | 0.00 | 0.00 | 26 | 1012.3 |
| 20260505192559 | 87 | 243 | 3.0 | 9.0 | 0.00 | 0.00 | 0.00 | 26 | 1012.2 |
| 20260505192056 | 88 | 227 | 2.0 | 6.0 | 0.00 | 0.00 | 0.00 | 28 | 1012.4 |
| 20260505191556 | 87 | 157 | 2.0 | 7.0 | 0.00 | 0.00 | 0.00 | 28 | 1012.5 |
| 20260505191053 | 87 | 140 | 2.0 | 8.0 | 0.00 | 0.00 | 0.00 | 28 | 1012.5 |
| 20260505190551 | 87 | 145 | 1.0 | 10.0 | 0.00 | 0.00 | 0.00 | 29 | 1012.6 |
| 20260505190050 | 87 | 216 | 2.0 | 10.0 | 0.00 | 0.00 | 0.00 | 28 | 1012.8 |
| 20260505185548 | 87 | 201 | 3.0 | 10.0 | 0.00 | 0.00 | 0.00 | 27 | 1012.8 |
| 20260505185046 | 86 | 148 | 4.0 | 10.0 | 0.00 | 0.00 | 0.00 | 26 | 1012.9 |
| 20260505184550 | 87 | 223 | 2.0 | 9.0 | 0.00 | 0.00 | 0.00 | 27 | 1012.9 |
| 20260505184044 | 87 | 227 | 3.0 | 9.0 | 0.00 | 0.00 | 0.00 | 26 | 1012.9 |
| 20260505183541 | 87 | 223 | 3.0 | 9.0 | 0.00 | 0.00 | 0.00 | 27 | 1013.0 |
| 20260505183045 | 87 | 240 | 4.0 | 14.0 | 0.00 | 0.00 | 0.00 | 26 | 1013.2 |
| 20260505182541 | 87 | 211 | 4.0 | 14.0 | 0.00 | 0.00 | 0.00 | 27 | 1013.2 |
| 20260505182037 | 87 | 271 | 3.0 | 9.0 | 0.00 | 0.00 | 0.00 | 28 | 1013.2 |
| 20260505181536 | 87 | 207 | 2.0 | 6.0 | 0.00 | 0.00 | 0.00 | 28 | 1013.4 |
| 20260505181039 | 87 | 219 | 3.0 | 6.0 | 0.00 | 0.00 | 0.00 | 27 | 1013.4 |
| 20260505180536 | 87 | 191 | 2.0 | 5.0 | 0.00 | 0.00 | 0.00 | 29 | 1013.4 |
| 20260505180031 | 87 | 225 | 2.0 | 8.0 | 0.00 | 0.00 | 0.00 | 30 | 1013.4 |
| 20260505175530 | 86 | 223 | 3.0 | 8.0 | 0.00 | 0.00 | 0.00 | 31 | 1013.4 |
| 20260505175028 | 86 | 180 | 2.0 | 6.0 | 0.00 | 0.00 | 0.00 | 30 | 1013.5 |
| 20260505174527 | 86 | 196 | 2.0 | 9.0 | 0.00 | 0.00 | 0.00 | 29 | 1013.5 |
| 20260505174026 | 85 | 184 | 2.0 | 9.0 | 0.00 | 0.00 | 0.00 | 29 | 1013.5 |
| 20260505173524 | 86 | 221 | 2.0 | 9.0 | 0.00 | 0.00 | 0.00 | 30 | 1013.6 |
| 20260505173022 | 86 | 198 | 4.0 | 9.0 | 0.00 | 0.00 | 0.00 | 29 | 1013.6 |
| 20260505172521 | 86 | 255 | 2.0 | 10.0 | 0.00 | 0.00 | 0.00 | 32 | 1013.6 |
| 20260505172020 | 85 | 199 | 3.0 | 10.0 | 0.00 | 0.00 | 0.00 | 33 | 1013.6 |
| 20260505171518 | 86 | 33 | 2.0 | 9.0 | 0.00 | 0.00 | 0.00 | 33 | 1013.6 |
| 20260505171017 | 86 | 209 | 2.0 | 8.0 | 0.00 | 0.00 | 0.00 | 35 | 1013.8 |
| 20260505170516 | 86 | 230 | 2.0 | 5.0 | 0.00 | 0.00 | 0.00 | 35 | 1014.0 |
| 20260505170015 | 86 | 108 | 1.0 | 5.0 | 0.00 | 0.00 | 0.00 | 36 | 1013.9 |
| 20260505165514 | 85 | 190 | 1.0 | 5.0 | 0.00 | 0.00 | 0.00 | 37 | 1014.2 |
| 20260505165011 | 85 | 196 | 1.0 | 7.0 | 0.00 | 0.00 | 0.00 | 37 | 1014.1 |
| 20260505164510 | 84 | 143 | 1.0 | 7.0 | 0.00 | 0.00 | 0.00 | 36 | 1014.2 |
| 20260505164008 | 84 | 165 | 2.0 | 9.0 | 0.00 | 0.00 | 0.00 | 36 | 1014.3 |
| 20260505163507 | 84 | 169 | 2.0 | 10.0 | 0.00 | 0.00 | 0.00 | 38 | 1014.3 |
| 20260505163006 | 84 | 225 | 1.0 | 10.0 | 0.00 | 0.00 | 0.00 | 38 | 1014.4 |
| 20260505162508 | 84 | 213 | 2.0 | 5.0 | 0.00 | 0.00 | 0.00 | 38 | 1014.5 |
| 20260505162004 | 83 | 134 | 1.0 | 4.0 | 0.00 | 0.00 | 0.00 | 37 | 1014.5 |
| 20260505161501 | 83 | 209 | 1.0 | 4.0 | 0.00 | 0.00 | 0.00 | 41 | 1014.6 |
| 20260505161100 | 83 | 67 | 1.0 | 5.0 | 0.00 | 0.00 | 0.00 | 40 | 1014.8 |
| 20260505160558 | 82 | 219 | 2.0 | 6.0 | 0.00 | 0.00 | 0.00 | 41 | 1014.8 |
| 20260505153052 | 80 | 237 | 1.0 | 5.0 | 0.00 | 0.00 | 0.00 | 45 | 1015.2 |
| 20260505152549 | 79 | 205 | 1.0 | 7.0 | 0.00 | 0.00 | 0.00 | 45 | 1015.2 |
| 20260505152044 | 79 | 212 | 1.0 | 4.0 | 0.00 | 0.00 | 0.00 | 44 | 1015.2 |
| 20260505151546 | 79 | 209 | 2.0 | 5.0 | 0.00 | 0.00 | 0.00 | 46 | 1015.2 |
| 20260505151042 | 78 | 221 | 1.0 | 8.0 | 0.00 | 0.00 | 0.00 | 46 | 1015.2 |
| 20260505150541 | 78 | 222 | 1.0 | 8.0 | 0.00 | 0.00 | 0.00 | 45 | 1015.2 |
| 20260505140525 | 72 | 194 | 2.0 | 8.0 | 0.00 | 0.00 | 0.00 | 52 | 1015.1 |
| 20260505125002 | 65 | 241 | 1.0 | 4.0 | 0.00 | 0.00 | 0.00 | 40 | 1015.2 |
| 20260505124603 | 64 | 242 | 1.0 | 4.0 | 0.00 | 0.00 | 0.00 | 40 | 1015.2 |
| 20260505124100 | 64 | 205 | 1.0 | 4.0 | 0.00 | 0.00 | 0.00 | 35 | 1015.2 |
| 20260505123556 | 63 | 198 | 1.0 | 3.0 | 0.00 | 0.00 | 0.00 | 33 | 1015.3 |
| 20260505123057 | 63 | 198 | 1.0 | 6.0 | 0.00 | 0.00 | 0.00 | 27 | 1015.3 |
| 20260505122553 | 62 | 158 | 1.0 | 6.0 | 0.00 | 0.00 | 0.00 | 25 | 1015.2 |
| 20260505122052 | 62 | 213 | 2.0 | 5.0 | 0.00 | 0.00 | 0.00 | 20 | 1015.2 |
| 20260505121551 | 61 | 234 | 1.0 | 5.0 | 0.00 | 0.00 | 0.00 | 15 | 1015.2 |
| 20260505121050 | 61 | 235 | 2.0 | 5.0 | 0.00 | 0.00 | 0.00 | 10 | 1015.0 |
| 20260505120548 | 60 | 243 | 2.0 | 7.0 | 0.00 | 0.00 | 0.00 | 4 | 1015.0 |
| 20260505120050 | 60 | 215 | 2.0 | 7.0 | 0.00 | 0.00 | 0.00 | 1 | 1014.9 |
| 20260505115545 | 60 | 194 | 2.0 | 4.0 | 0.00 | 0.00 | 0.00 | 1 | 1014.9 |
| 20260505115045 | 59 | 196 | 1.0 | 4.0 | 0.00 | 0.00 | 0.00 | 1 | 1014.9 |
| 20260505114542 | 59 | 109 | 1.0 | 4.0 | 0.00 | 0.00 | 0.00 | 1 | 1014.9 |
| 20260505114040 | 58 | 169 | 1.0 | 3.0 | 0.00 | 0.00 | 0.00 | 1 | 1014.9 |
| 20260505113540 | 58 | 142 | 1.0 | 3.0 | 0.00 | 0.00 | 0.00 | 1 | 1014.9 |
| 20260505113042 | 58 | 142 | 0.0 | 2.0 | 0.00 | 0.00 | 0.00 | 1 | 1014.8 |
| 20260505112535 | 58 | 142 | 0.0 | 2.0 | 0.00 | 0.00 | 0.00 | 1 | 1014.9 |
| 20260505112035 | 57 | 142 | 0.0 | 2.0 | 0.00 | 0.00 | 0.00 | 1 | 1014.8 |
| 20260505111542 | 57 | 142 | 0.0 | 2.0 | 0.00 | 0.00 | 0.00 | 1 | 1014.8 |
| 20260505111032 | 57 | 142 | 0.0 | 2.0 | 0.00 | 0.00 | 0.00 | 1 | 1014.7 |
| 20260505110531 | 57 | 142 | 0.0 | 5.0 | 0.00 | 0.00 | 0.00 | 1 | 1014.6 |
| 20260505102019 | 58 | 136 | 0.0 | 0.0 | 0.00 | 0.00 | 0.00 | 15 | 1014.2 |
| 20260505101529 | 58 | 136 | 0.0 | 0.0 | 0.00 | 0.00 | 0.00 | 15 | 1014.3 |
| 20260505101018 | 58 | 136 | 0.0 | 0.0 | 0.00 | 0.00 | 0.00 | 17 | 1014.3 |
| 20260505100517 | 59 | 136 | 0.0 | 0.0 | 0.00 | 0.00 | 0.00 | 18 | 1014.2 |
| 20260505100017 | 59 | 136 | 0.0 | 0.0 | 0.00 | 0.00 | 0.00 | 20 | 1014.3 |
| 20260505095516 | 59 | 136 | 0.0 | 0.0 | 0.00 | 0.00 | 0.00 | 21 | 1014.2 |
| 20260505095014 | 59 | 136 | 0.0 | 0.0 | 0.00 | 0.00 | 0.00 | 22 | 1014.2 |
| 20260505094514 | 59 | 136 | 0.0 | 0.0 | 0.00 | 0.00 | 0.00 | 23 | 1014.2 |
| 20260505094013 | 59 | 136 | 0.0 | 0.0 | 0.00 | 0.00 | 0.00 | 24 | 1014.1 |
| 20260505093513 | 59 | 136 | 0.0 | 0.0 | 0.00 | 0.00 | 0.00 | 26 | 1014.1 |
| 20260505093012 | 60 | 136 | 0.0 | 0.0 | 0.00 | 0.00 | 0.00 | 26 | 1014.1 |
| 20260505092512 | 60 | 136 | 0.0 | 0.0 | 0.00 | 0.00 | 0.00 | 27 | 1014.0 |
| 20260505092011 | 60 | 136 | 0.0 | 1.0 | 0.00 | 0.00 | 0.00 | 28 | 1014.0 |
| 20260505091510 | 60 | 136 | 0.0 | 2.0 | 0.00 | 0.00 | 0.00 | 29 | 1014.0 |
| 20260505091010 | 60 | 136 | 0.0 | 3.0 | 0.00 | 0.00 | 0.00 | 30 | 1014.1 |
| 20260505090508 | 60 | 136 | 0.0 | 3.0 | 0.00 | 0.00 | 0.00 | 31 | 1014.0 |
| 20260505090011 | 60 | 179 | 0.0 | 3.0 | 0.00 | 0.00 | 0.00 | 31 | 1014.1 |
| 20260505085509 | 60 | 179 | 0.0 | 3.0 | 0.00 | 0.00 | 0.00 | 32 | 1014.0 |
| 20260505085007 | 61 | 179 | 1.0 | 3.0 | 0.00 | 0.00 | 0.00 | 33 | 1014.1 |
| 20260505084523 | 61 | 173 | 0.0 | 0.0 | 0.00 | 0.00 | 0.00 | 34 | 1014.0 |
| 20260505084006 | 61 | 173 | 0.0 | 0.0 | 0.00 | 0.00 | 0.00 | 34 | 1014.0 |
| 20260505083505 | 61 | 173 | 0.0 | 0.0 | 0.00 | 0.00 | 0.00 | 35 | 1014.0 |
| 20260505083005 | 61 | 173 | 0.0 | 0.0 | 0.00 | 0.00 | 0.00 | 35 | 1014.0 |
| 20260505082504 | 61 | 173 | 0.0 | 0.0 | 0.00 | 0.00 | 0.00 | 36 | 1014.1 |
| 20260505082004 | 61 | 173 | 0.0 | 1.0 | 0.00 | 0.00 | 0.00 | 37 | 1014.0 |
| 20260505081503 | 61 | 173 | 0.0 | 3.0 | 0.00 | 0.00 | 0.00 | 37 | 1014.0 |
| 20260505081003 | 61 | 173 | 1.0 | 3.0 | 0.00 | 0.00 | 0.00 | 38 | 1014.0 |
| 20260505080505 | 61 | 197 | 0.0 | 4.0 | 0.00 | 0.00 | 0.00 | 39 | 1014.0 |
| 20260505080004 | 61 | 197 | 2.0 | 4.0 | 0.00 | 0.00 | 0.00 | 39 | 1013.9 |
| 20260505075501 | 61 | 203 | 1.0 | 3.0 | 0.00 | 0.00 | 0.00 | 40 | 1014.0 |
| 20260505075100 | 61 | 203 | 1.0 | 3.0 | 0.00 | 0.00 | 0.00 | 40 | 1014.0 |
| 20260505074559 | 61 | 203 | 1.0 | 3.0 | 0.00 | 0.00 | 0.00 | 41 | 1013.8 |
| 20260505074059 | 61 | 214 | 0.0 | 3.0 | 0.00 | 0.00 | 0.00 | 42 | 1013.8 |
| 20260505073558 | 62 | 215 | 1.0 | 3.0 | 0.00 | 0.00 | 0.00 | 43 | 1013.8 |
| 20260505073102 | 62 | 215 | 1.0 | 3.0 | 0.00 | 0.00 | 0.00 | 44 | 1013.5 |
| 20260505072600 | 62 | 169 | 0.0 | 0.0 | 0.00 | 0.00 | 0.00 | 45 | 1013.5 |
| 20260505072058 | 62 | 158 | 0.0 | 4.0 | 0.00 | 0.00 | 0.00 | 46 | 1013.5 |
| 20260505071600 | 62 | 158 | 0.0 | 6.0 | 0.00 | 0.00 | 0.00 | 46 | 1013.5 |
| 20260505071054 | 62 | 169 | 1.0 | 6.0 | 0.00 | 0.00 | 0.00 | 47 | 1013.4 |
| 20260505070554 | 62 | 190 | 1.0 | 5.0 | 0.00 | 0.00 | 0.00 | 48 | 1013.3 |
| 20260505070103 | 62 | 188 | 1.0 | 4.0 | 0.00 | 0.00 | 0.00 | 49 | 1013.2 |
| 20260505065554 | 61 | 157 | 1.0 | 3.0 | 0.00 | 0.00 | 0.00 | 50 | 1013.3 |
| 20260505065052 | 61 | 150 | 0.0 | 4.0 | 0.00 | 0.00 | 0.00 | 50 | 1013.3 |
| 20260505064557 | 61 | 149 | 1.0 | 4.0 | 0.00 | 0.00 | 0.00 | 51 | 1013.3 |
| 20260505064051 | 62 | 122 | 0.0 | 3.0 | 0.00 | 0.00 | 0.00 | 52 | 1013.3 |
| 20260505063551 | 62 | 167 | 2.0 | 3.0 | 0.00 | 0.00 | 0.00 | 53 | 1013.2 |
| 20260505063051 | 62 | 164 | 0.0 | 3.0 | 0.00 | 0.00 | 0.00 | 54 | 1013.2 |
| 20260505062550 | 62 | 177 | 1.0 | 3.0 | 0.00 | 0.00 | 0.00 | 55 | 1013.3 |
| 20260505062052 | 62 | 155 | 1.0 | 3.0 | 0.00 | 0.00 | 0.00 | 55 | 1013.2 |
| 20260505061611 | 62 | 150 | 0.0 | 3.0 | 0.00 | 0.00 | 0.00 | 55 | 1013.3 |
| 20260505061049 | 62 | 162 | 1.0 | 3.0 | 0.00 | 0.00 | 0.00 | 55 | 1013.3 |
| 20260505060548 | 62 | 163 | 0.0 | 4.0 | 0.00 | 0.00 | 0.00 | 55 | 1013.3 |
| 20260505060053 | 62 | 162 | 0.0 | 4.0 | 0.00 | 0.00 | 0.00 | 56 | 1013.3 |
| 20260505055550 | 62 | 196 | 1.0 | 6.0 | 0.00 | 0.00 | 0.00 | 56 | 1013.4 |
| 20260505055046 | 62 | 122 | 1.0 | 7.0 | 0.00 | 0.00 | 0.00 | 55 | 1013.4 |
| 20260505054549 | 62 | 155 | 1.0 | 7.0 | 0.00 | 0.00 | 0.00 | 55 | 1013.4 |
| 20260505054045 | 63 | 355 | 1.0 | 4.0 | 0.00 | 0.00 | 0.00 | 55 | 1013.4 |
| 20260505053545 | 63 | 201 | 1.0 | 4.0 | 0.00 | 0.00 | 0.00 | 55 | 1013.4 |
| 20260505053045 | 63 | 135 | 1.0 | 3.0 | 0.00 | 0.00 | 0.00 | 55 | 1013.4 |
| 20260505052549 | 63 | 121 | 1.0 | 3.0 | 0.00 | 0.00 | 0.00 | 55 | 1013.4 |
| 20260505052045 | 63 | 120 | 1.0 | 7.0 | 0.00 | 0.00 | 0.00 | 55 | 1013.5 |
| 20260505051545 | 63 | 175 | 2.0 | 7.0 | 0.00 | 0.00 | 0.00 | 55 | 1013.5 |
| 20260505051045 | 63 | 169 | 2.0 | 7.0 | 0.00 | 0.00 | 0.00 | 55 | 1013.4 |
| 20260505050544 | 63 | 188 | 1.0 | 4.0 | 0.00 | 0.00 | 0.00 | 54 | 1013.4 |
| 20260505041539 | 63 | 193 | 1.0 | 5.0 | 0.00 | 0.00 | 0.00 | 54 | 1013.1 |
| 20260505041041 | 63 | 167 | 2.0 | 8.0 | 0.00 | 0.00 | 0.00 | 54 | 1013.1 |
| 20260505040538 | 63 | 198 | 1.0 | 8.0 | 0.00 | 0.00 | 0.00 | 54 | 1013.1 |
| 20260505040051 | 63 | 161 | 0.0 | 3.0 | 0.00 | 0.00 | 0.00 | 55 | 1013.0 |
| 20260505035535 | 63 | 128 | 0.0 | 2.0 | 0.00 | 0.00 | 0.00 | 55 | 1013.0 |
| 20260505035039 | 62 | 146 | 0.0 | 0.0 | 0.00 | 0.00 | 0.00 | 55 | 1013.1 |
| 20260505034541 | 62 | 146 | 0.0 | 0.0 | 0.00 | 0.00 | 0.00 | 55 | 1012.9 |
| 20260505034035 | 62 | 146 | 0.0 | 1.0 | 0.00 | 0.00 | 0.00 | 55 | 1012.9 |
| 20260505033535 | 62 | 146 | 0.0 | 3.0 | 0.00 | 0.00 | 0.00 | 55 | 1013.0 |
| 20260505033034 | 62 | 146 | 0.0 | 3.0 | 0.00 | 0.00 | 0.00 | 55 | 1013.0 |
| 20260505032535 | 62 | 177 | 0.0 | 0.0 | 0.00 | 0.00 | 0.00 | 55 | 1013.0 |
| 20260505032036 | 63 | 177 | 0.0 | 2.0 | 0.00 | 0.00 | 0.00 | 55 | 1013.0 |
| 20260505031545 | 63 | 177 | 0.0 | 2.0 | 0.00 | 0.00 | 0.00 | 55 | 1013.0 |
| 20260505031034 | 63 | 180 | 0.0 | 0.0 | 0.00 | 0.00 | 0.00 | 55 | 1013.0 |
| 20260505030534 | 63 | 180 | 0.0 | 1.0 | 0.00 | 0.00 | 0.00 | 55 | 1013.0 |
| 20260505030034 | 63 | 180 | 0.0 | 1.0 | 0.00 | 0.00 | 0.00 | 55 | 1013.0 |
| 20260505025534 | 63 | 180 | 0.0 | 1.0 | 0.00 | 0.00 | 0.00 | 55 | 1013.0 |
| 20260505025038 | 63 | 180 | 0.0 | 1.0 | 0.00 | 0.00 | 0.00 | 55 | 1013.1 |
| 20260505024534 | 64 | 180 | 0.0 | 0.0 | 0.00 | 0.00 | 0.00 | 55 | 1013.2 |
| 20260505024034 | 64 | 180 | 0.0 | 0.0 | 0.00 | 0.00 | 0.00 | 54 | 1013.1 |
| 20260505023533 | 64 | 180 | 0.0 | 0.0 | 0.00 | 0.00 | 0.00 | 55 | 1013.0 |
| 20260505023033 | 64 | 180 | 0.0 | 0.0 | 0.00 | 0.00 | 0.00 | 55 | 1013.0 |
| 20260505022534 | 64 | 180 | 0.0 | 1.0 | 0.00 | 0.00 | 0.00 | 54 | 1013.0 |
| 20260505022033 | 65 | 180 | 0.0 | 1.0 | 0.00 | 0.00 | 0.00 | 54 | 1013.0 |
| 20260505021535 | 65 | 180 | 0.0 | 0.0 | 0.00 | 0.00 | 0.00 | 54 | 1012.9 |
| 20260505021033 | 65 | 180 | 0.0 | 0.0 | 0.00 | 0.00 | 0.00 | 53 | 1013.0 |
| 20260505020533 | 65 | 180 | 0.0 | 0.0 | 0.00 | 0.00 | 0.00 | 53 | 1012.9 |
| 20260505020039 | 65 | 180 | 0.0 | 0.0 | 0.00 | 0.00 | 0.00 | 53 | 1012.9 |
| 20260505015533 | 66 | 180 | 0.0 | 0.0 | 0.00 | 0.00 | 0.00 | 53 | 1012.9 |
| 20260505015032 | 66 | 180 | 0.0 | 0.0 | 0.00 | 0.00 | 0.00 | 52 | 1012.8 |
| 20260505014534 | 66 | 180 | 0.0 | 0.0 | 0.00 | 0.00 | 0.00 | 52 | 1012.9 |
| 20260505014034 | 66 | 180 | 0.0 | 0.0 | 0.00 | 0.00 | 0.00 | 52 | 1012.8 |
| 20260505013531 | 67 | 180 | 0.0 | 0.0 | 0.00 | 0.00 | 0.00 | 51 | 1012.7 |
| 20260505013032 | 67 | 180 | 0.0 | 0.0 | 0.00 | 0.00 | 0.00 | 50 | 1012.7 |
| 20260505012532 | 67 | 180 | 0.0 | 0.0 | 0.00 | 0.00 | 0.00 | 49 | 1012.7 |
| 20260505012035 | 67 | 180 | 0.0 | 0.0 | 0.00 | 0.00 | 0.00 | 50 | 1012.5 |
| 20260505011531 | 68 | 180 | 0.0 | 0.0 | 0.00 | 0.00 | 0.00 | 49 | 1012.5 |
| 20260505011032 | 68 | 180 | 0.0 | 0.0 | 0.00 | 0.00 | 0.00 | 49 | 1012.4 |
| 20260505010531 | 68 | 180 | 0.0 | 0.0 | 0.00 | 0.00 | 0.00 | 49 | 1012.5 |
| 20260505010033 | 68 | 180 | 0.0 | 0.0 | 0.00 | 0.00 | 0.00 | 48 | 1012.4 |